Tracking 35331 objects as of 16-Sep-2026
HD Live streaming from Space Station
objects crossing your sky now

SL-4 R/B


SL-4 R/B is no longer on orbit


NORAD ID: 57692
Int'l Code: 2023-125B
Launch date: August 23, 2023
Source: Commonwealth of Independent States (former USSR) (CIS)
Launch site: TYURATAM MISSILE AND SPACE COMPLEX (TTMTR)
Decay date: 2023-08-25

Note: This is a ROCKET BODY
Your satellite tracking list
Your tracking list is empty




NASA's NSSDC Master Catalog

Two Line Element Set (TLE):
1 57692U 23125B   23236.65532104  .06757558  12444-4  50314-3 0  9992
2 57692  51.6515 349.1256 0011258  69.6488  68.2791 16.39534907   237
Source of the keplerian elements: AFSPC